College Station, TX

2:06 AM CST on February 11, 2016 (GMT -0600)
Easterwood

Weather History for KCLL - July, 2013

Change the Weather History Date:

Wednesday, July 31, 2013

  Actual Average Record
Temperature  
Mean Temperature 89 °F 85 °F  
Max Temperature 102 °F 96 °F 105 °F (1914)
Min Temperature 76 °F 75 °F 62 °F (1936)
Degree Days  
Heating Degree Days 0 0  
Month to date heating degree days 0 0  
Since 1 June heating degree days 0 0  
Since 1 July heating degree days 0 0  
Cooling Degree Days 24 20  
Month to date cooling degree days 631 611  
Year to date cooling degree days 1779 1715  
Since 1 June cooling degree days 1215 1127  
Growing Degree Days 38 (Base 50)    
Moisture  
Dew Point 69 °F    
Average Humidity 61    
Maximum Humidity 94    
Minimum Humidity 27    
Precipitation  
Precipitation 0.00 in 0.06 in 1.85 in (1925)
Month to date precipitation 1.43 2.14  
Year to date precipitation 18.95 22.84  
Sea Level Pressure  
Sea Level Pressure 30.03 in    
Wind  
Wind Speed 6 mph (SSW)    
Max Wind Speed 15 mph    
Max Gust Speed 18 mph    
Visibility 10 miles    
Events      
T = Trace of Precipitation, MM = Missing Value Source: NWS Daily Summary

Daily Weather History Graph

Daily Weather History Graph

Search for Another Location

Airport or City:

Trip Planner

Search our weather history database for the weather conditions in past years. The results will help you decide how hot, cold, wet, or windy it might be!

Date:

Astronomy

Jul. 31, 2013 Rise Set
Actual Time 6:42 AM CDT 8:20 PM CDT
Civil Twilight 6:16 AM CDT 8:46 PM CDT
Nautical Twilight 5:45 AM CDT 9:17 PM CDT
Astronomical Twilight 5:12 AM CDT 9:50 PM CDT
Moon 1:38 AM CDT (7/31) 3:36 PM CDT (7/31)
Length of Visible Light 14h 29m
Length of Day
13h 37m
Waning Crescent, 31% of the Moon is Illuminated
Jul 31
Waning Crescent
Aug 6
New
Aug 14
First Quarter
Aug 20
Full
Aug 28
Last Quarter

Hourly Weather History & Observations

Time (CDT) Temp. Heat Index Dew Point Humidity Pressure Visibility Wind Dir Wind Speed Gust Speed Precip Events Conditions
12:53 AM 79.0 °F - 73.0 °F 82% 30.05 in 10.0 mi South 13.8 mph - N/A   Clear
2:53 AM 75.9 °F - 73.0 °F 91% 30.04 in 10.0 mi South 5.8 mph - N/A   Partly Cloudy
3:29 AM 75.2 °F - 73.4 °F 94% 30.06 in 10.0 mi South 3.5 mph - N/A   Mostly Cloudy
3:53 AM 75.9 °F - 73.9 °F 94% 30.05 in 10.0 mi Calm Calm - N/A   Overcast
4:53 AM 75.9 °F - 73.9 °F 94% 30.05 in 9.0 mi South 4.6 mph - N/A   Mostly Cloudy
5:53 AM 75.9 °F - 73.9 °F 94% 30.05 in 9.0 mi South 5.8 mph - N/A   Mostly Cloudy
6:53 AM 75.9 °F - 73.9 °F 94% 30.06 in 7.0 mi South 6.9 mph - N/A   Scattered Clouds
7:53 AM 77.0 °F - 73.9 °F 90% 30.08 in 7.0 mi SSW 8.1 mph - N/A   Partly Cloudy
8:18 AM 78.8 °F - 73.4 °F 83% 30.10 in 9.0 mi SSW 10.4 mph - N/A   Scattered Clouds
8:33 AM 78.8 °F - 73.4 °F 83% 30.10 in 10.0 mi SSW 9.2 mph - N/A   Mostly Cloudy
8:53 AM 80.1 °F 84.2 °F 73.0 °F 79% 30.09 in 10.0 mi SW 9.2 mph - N/A   Overcast
9:31 AM 82.4 °F 87.2 °F 71.6 °F 70% 30.11 in 10.0 mi SSW 12.7 mph 18.4 mph N/A   Partly Cloudy
9:53 AM 82.9 °F 88.0 °F 72.0 °F 69% 30.10 in 10.0 mi SW 13.8 mph - N/A   Mostly Cloudy
10:13 AM 84.2 °F 89.6 °F 71.6 °F 66% 30.11 in 10.0 mi SW 12.7 mph - N/A   Scattered Clouds
10:53 AM 87.1 °F 92.8 °F 71.1 °F 59% 30.09 in 10.0 mi SSW 9.2 mph - N/A   Clear
11:53 AM 89.1 °F 93.7 °F 69.1 °F 52% 30.07 in 10.0 mi SSW 9.2 mph 17.3 mph N/A   Clear
12:53 PM 91.9 °F 95.4 °F 66.9 °F 44% 30.05 in 10.0 mi SW 9.2 mph - N/A   Clear
1:53 PM 95.0 °F 95.6 °F 62.1 °F 33% 30.02 in 10.0 mi Variable 3.5 mph - N/A   Clear
2:53 PM 97.0 °F 96.9 °F 60.1 °F 29% 30.00 in 10.0 mi Calm Calm - N/A   Clear
3:53 PM 100.0 °F 101.8 °F 62.1 °F 29% 29.98 in 10.0 mi NW 4.6 mph - N/A   Clear
4:53 PM 99.0 °F 99.5 °F 60.1 °F 28% 29.95 in 10.0 mi Variable 3.5 mph - N/A   Clear
5:53 PM 99.0 °F 98.6 °F 59.0 °F 26% 29.93 in 10.0 mi Calm Calm - N/A   Clear
6:53 PM 100.0 °F 100.7 °F 60.1 °F 27% 29.91 in 10.0 mi SW 3.5 mph - N/A   Clear
7:53 PM 98.1 °F 98.6 °F 61.0 °F 29% 29.91 in 10.0 mi South 3.5 mph - N/A   Clear
8:53 PM 91.0 °F 93.0 °F 64.9 °F 42% 29.93 in 10.0 mi SE 5.8 mph - N/A   Clear
9:53 PM 89.1 °F 92.9 °F 68.0 °F 50% 29.94 in 10.0 mi SE 4.6 mph - N/A   Clear
10:53 PM 87.1 °F 89.2 °F 66.0 °F 49% 29.96 in 10.0 mi SE 4.6 mph - N/A   Clear
11:53 PM 86.0 °F 91.5 °F 71.1 °F 61% 29.97 in 10.0 mi South 9.2 mph - N/A   Clear